XSR361 KDWH-KFTW

Flight info

Callsign XSR361
Flight time 0h 43m
Altitude 22000
Route BLTWY7 CRIED REEKO3
Aircraft E55P/M-SBDGRW/LB2

Departure

Time 2026-05-09 17:44
Airport David Wayne Hooks Memorial Airport (KDWH)

Arrival

Time 2026-05-09 18:27
Airport Fort Worth Meacham International Airport (KFTW)
Time Latitude Longitude Altitude Speed Heading
2026-05-09 16:58 30.07021 -95.55264 150 ft 0 kts 182°
2026-05-09 17:40 30.07016 -95.55264 150 ft 2 kts 186°
2026-05-09 17:40 30.06993 -95.55286 150 ft 4 kts 257°
2026-05-09 17:41 30.06992 -95.55324 151 ft 5 kts 269°
2026-05-09 17:41 30.06991 -95.55389 152 ft 9 kts 268°
2026-05-09 17:41 30.07031 -95.55437 152 ft 10 kts 352°
2026-05-09 17:41 30.07129 -95.55453 152 ft 16 kts 352°
2026-05-09 17:42 30.07247 -95.55471 152 ft 17 kts 353°
2026-05-09 17:42 30.07345 -95.55489 152 ft 11 kts 339°
2026-05-09 17:42 30.07366 -95.55494 152 ft 1 kts 54°
2026-05-09 17:42 30.07358 -95.55486 152 ft 4 kts 168°
2026-05-09 17:43 30.07308 -95.55477 152 ft 8 kts 173°
2026-05-09 17:43 30.07138 -95.55451 152 ft 60 kts 174°
2026-05-09 17:43 30.06434 -95.55347 167 ft 135 kts 172°
2026-05-09 17:43 30.05416 -95.55203 683 ft 157 kts 175°
2026-05-09 17:44 30.04326 -95.55552 1121 ft 183 kts 224°
2026-05-09 17:44 30.03819 -95.56898 1557 ft 196 kts 272°
2026-05-09 17:44 30.04379 -95.58323 1917 ft 206 kts 319°
2026-05-09 17:44 30.05700 -95.58916 2001 ft 208 kts
2026-05-09 17:45 30.07036 -95.58375 1995 ft 206 kts 31°
2026-05-09 17:45 30.08234 -95.57484 2009 ft 203 kts 32°
2026-05-09 17:45 30.09434 -95.56597 1993 ft 202 kts 31°
2026-05-09 17:45 30.10609 -95.55726 2009 ft 200 kts 32°
2026-05-09 17:46 30.11782 -95.54862 2000 ft 200 kts 31°
2026-05-09 17:46 30.12957 -95.54012 2005 ft 199 kts 31°
2026-05-09 17:46 30.14140 -95.53164 2000 ft 198 kts 32°
2026-05-09 17:46 30.15302 -95.52335 1993 ft 198 kts 31°
2026-05-09 17:47 30.16469 -95.51485 2025 ft 195 kts 31°
2026-05-09 17:47 30.17627 -95.50672 2267 ft 197 kts 30°
2026-05-09 17:47 30.18796 -95.49841 2818 ft 197 kts 30°
2026-05-09 17:47 30.20005 -95.48994 3327 ft 216 kts 31°
2026-05-09 17:48 30.21347 -95.48051 4002 ft 233 kts 25°
2026-05-09 17:48 30.22941 -95.47642 4809 ft 242 kts
2026-05-09 17:48 30.24591 -95.47612 5797 ft 242 kts 358°
2026-05-09 17:48 30.26265 -95.47655 6702 ft 247 kts 357°
2026-05-09 17:49 30.28009 -95.47725 7609 ft 252 kts 356°
2026-05-09 17:49 30.29752 -95.47796 8505 ft 256 kts 356°
2026-05-09 17:49 30.31537 -95.47870 9384 ft 260 kts 355°
2026-05-09 17:49 30.33351 -95.47948 10250 ft 265 kts 355°
2026-05-09 17:50 30.35187 -95.48025 11155 ft 268 kts 354°
2026-05-09 17:50 30.38940 -95.48184 12866 ft 276 kts 353°
2026-05-09 17:50 30.40854 -95.48268 13684 ft 281 kts 354°
2026-05-09 17:51 30.42827 -95.48352 14524 ft 285 kts 353°
2026-05-09 17:51 30.44808 -95.48436 15331 ft 290 kts 353°
2026-05-09 17:51 30.46830 -95.48522 16162 ft 294 kts 353°
2026-05-09 17:51 30.48884 -95.48608 16988 ft 297 kts 352°
2026-05-09 17:52 30.50944 -95.48698 17789 ft 301 kts 352°
2026-05-09 17:52 30.53024 -95.48782 18512 ft 304 kts 351°
2026-05-09 17:52 30.55160 -95.48872 19202 ft 308 kts 351°
2026-05-09 17:52 30.57311 -95.48964 19872 ft 313 kts 350°
2026-05-09 17:53 30.59479 -95.49054 20545 ft 316 kts 349°
2026-05-09 17:53 30.61649 -95.49315 21177 ft 312 kts 339°
2026-05-09 17:53 30.63823 -95.49834 21652 ft 323 kts 340°
2026-05-09 17:53 30.66079 -95.50354 21867 ft 342 kts 340°
2026-05-09 17:54 30.68476 -95.50908 21897 ft 364 kts 341°
2026-05-09 17:54 30.71054 -95.51494 21901 ft 386 kts 341°
2026-05-09 17:54 30.73747 -95.52103 21903 ft 399 kts 342°
2026-05-09 17:54 30.76458 -95.52708 21885 ft 400 kts 342°
2026-05-09 17:55 30.79202 -95.53329 21880 ft 401 kts 342°
2026-05-09 17:55 30.81952 -95.53950 21878 ft 401 kts 342°
2026-05-09 17:55 30.84685 -95.54569 21880 ft 401 kts 342°
2026-05-09 17:55 30.87436 -95.55192 21876 ft 400 kts 342°
2026-05-09 17:56 30.90176 -95.55818 21881 ft 399 kts 342°
2026-05-09 17:56 30.92902 -95.56436 21877 ft 399 kts 342°
2026-05-09 17:56 30.95623 -95.57056 21876 ft 398 kts 343°
2026-05-09 17:57 31.01036 -95.58286 21879 ft 396 kts 343°
2026-05-09 17:57 31.03724 -95.58899 21881 ft 396 kts 343°
2026-05-09 17:57 31.06436 -95.59516 21881 ft 395 kts 343°
2026-05-09 17:57 31.09138 -95.60133 21882 ft 395 kts 343°
2026-05-09 17:58 31.11855 -95.60754 21876 ft 395 kts 343°
2026-05-09 17:58 31.14533 -95.61364 21872 ft 395 kts 343°
2026-05-09 17:58 31.17222 -95.61982 21874 ft 394 kts 344°
2026-05-09 17:58 31.19934 -95.62601 21872 ft 394 kts 344°
2026-05-09 17:59 31.22600 -95.63210 21874 ft 394 kts 344°
2026-05-09 17:59 31.25299 -95.63827 21880 ft 393 kts 345°
2026-05-09 17:59 31.27977 -95.64440 21880 ft 393 kts 345°
2026-05-09 17:59 31.30684 -95.65061 21881 ft 393 kts 345°
2026-05-09 18:00 31.33345 -95.65670 21881 ft 392 kts 345°
2026-05-09 18:00 31.35890 -95.66689 21863 ft 383 kts 326°
2026-05-09 18:00 31.37954 -95.68642 21884 ft 378 kts 316°
2026-05-09 18:00 31.39962 -95.70594 21880 ft 377 kts 317°
2026-05-09 18:01 31.41975 -95.72581 21883 ft 377 kts 317°
2026-05-09 18:01 31.43963 -95.74535 21893 ft 376 kts 317°
2026-05-09 18:01 31.45971 -95.76511 21893 ft 376 kts 318°
2026-05-09 18:01 31.47975 -95.78477 21894 ft 376 kts 318°
2026-05-09 18:02 31.49964 -95.80431 21897 ft 375 kts 318°
2026-05-09 18:02 31.51966 -95.82398 21896 ft 375 kts 318°
2026-05-09 18:02 31.53977 -95.84380 21893 ft 375 kts 318°
2026-05-09 18:02 31.55974 -95.86343 21894 ft 375 kts 319°
2026-05-09 18:03 31.57949 -95.88293 21895 ft 376 kts 319°
2026-05-09 18:03 31.59969 -95.90283 21894 ft 376 kts 319°
2026-05-09 18:03 31.61978 -95.92265 21895 ft 376 kts 319°
2026-05-09 18:03 31.63965 -95.94229 21894 ft 377 kts 319°
2026-05-09 18:04 31.65971 -95.96211 21892 ft 377 kts 319°
2026-05-09 18:04 31.67984 -95.98202 21893 ft 377 kts 320°
2026-05-09 18:04 31.69979 -96.00175 21890 ft 376 kts 320°
2026-05-09 18:04 31.71997 -96.02171 21890 ft 376 kts 320°
2026-05-09 18:05 31.73986 -96.04137 21890 ft 375 kts 320°
2026-05-09 18:05 31.75987 -96.06118 21889 ft 375 kts 320°
2026-05-09 18:05 31.77959 -96.08073 21890 ft 376 kts 320°
2026-05-09 18:05 31.79978 -96.10074 21889 ft 376 kts 320°
2026-05-09 18:06 31.81954 -96.12036 21888 ft 377 kts 320°
2026-05-09 18:06 31.83975 -96.14041 21889 ft 377 kts 320°
2026-05-09 18:06 31.86000 -96.16054 21684 ft 383 kts 321°
2026-05-09 18:06 31.88038 -96.18079 21263 ft 393 kts 321°
2026-05-09 18:07 31.90154 -96.20184 20810 ft 398 kts 321°
2026-05-09 18:07 31.92243 -96.22263 20319 ft 397 kts 321°
2026-05-09 18:07 31.94347 -96.24358 19812 ft 394 kts 321°
2026-05-09 18:07 31.96421 -96.26426 19326 ft 391 kts 321°
2026-05-09 18:08 31.98484 -96.28481 18847 ft 387 kts 321°
2026-05-09 18:08 32.00516 -96.30511 18364 ft 384 kts 321°
2026-05-09 18:08 32.02556 -96.32547 17875 ft 381 kts 321°
2026-05-09 18:08 32.04559 -96.34548 17374 ft 378 kts 321°
2026-05-09 18:09 32.06561 -96.36549 16861 ft 376 kts 321°
2026-05-09 18:09 32.08557 -96.38546 16359 ft 378 kts 321°
2026-05-09 18:09 32.10575 -96.40564 15856 ft 378 kts 321°
2026-05-09 18:09 32.12562 -96.42556 15372 ft 378 kts 321°
2026-05-09 18:10 32.14550 -96.44548 14893 ft 369 kts 322°
2026-05-09 18:10 32.15830 -96.45830 14569 ft 364 kts 322°
2026-05-09 18:10 32.18393 -96.48390 13912 ft 358 kts 322°
2026-05-09 18:10 32.20281 -96.50249 13433 ft 356 kts 322°
2026-05-09 18:11 32.22193 -96.52133 12951 ft 353 kts 322°
2026-05-09 18:11 32.24063 -96.53981 12516 ft 350 kts 322°
2026-05-09 18:11 32.25915 -96.55811 12101 ft 350 kts 322°
2026-05-09 18:11 32.27790 -96.57671 11987 ft 353 kts 321°
2026-05-09 18:12 32.29264 -96.59920 11973 ft 345 kts 301°
2026-05-09 18:12 32.30412 -96.62342 11823 ft 328 kts 304°
2026-05-09 18:12 32.31525 -96.64634 11572 ft 317 kts 303°
2026-05-09 18:12 32.32605 -96.66844 11310 ft 307 kts 303°
2026-05-09 18:13 32.33377 -96.69171 10932 ft 308 kts 287°
2026-05-09 18:13 32.33922 -96.71602 10555 ft 304 kts 288°
2026-05-09 18:13 32.34471 -96.73999 10193 ft 301 kts 288°
2026-05-09 18:13 32.35020 -96.76388 9830 ft 298 kts 288°
2026-05-09 18:14 32.35563 -96.78735 9471 ft 296 kts 288°
2026-05-09 18:14 32.36100 -96.81068 9114 ft 293 kts 288°
2026-05-09 18:14 32.36628 -96.83360 8752 ft 291 kts 288°
2026-05-09 18:14 32.37160 -96.85666 8391 ft 289 kts 288°
2026-05-09 18:15 32.37684 -96.87948 8033 ft 287 kts 288°
2026-05-09 18:15 32.38206 -96.90216 7692 ft 284 kts 288°
2026-05-09 18:15 32.38714 -96.92427 7362 ft 282 kts 287°
2026-05-09 18:15 32.39225 -96.94654 7026 ft 279 kts 287°
2026-05-09 18:16 32.39729 -96.96861 6693 ft 277 kts 287°
2026-05-09 18:16 32.40173 -96.99070 6348 ft 277 kts 277°
2026-05-09 18:16 32.40149 -97.01325 6029 ft 275 kts 271°
2026-05-09 18:16 32.40132 -97.03597 5695 ft 274 kts 271°
2026-05-09 18:17 32.40108 -97.05814 5365 ft 272 kts 271°
2026-05-09 18:17 32.40086 -97.08061 5033 ft 271 kts 271°
2026-05-09 18:17 32.40065 -97.10284 4696 ft 269 kts 272°
2026-05-09 18:17 32.40537 -97.12354 4376 ft 265 kts 304°
2026-05-09 18:18 32.41721 -97.13992 4100 ft 262 kts 313°
2026-05-09 18:18 32.42928 -97.15602 4025 ft 259 kts 313°
2026-05-09 18:18 32.44120 -97.17177 4014 ft 253 kts 313°
2026-05-09 18:18 32.45271 -97.18702 4014 ft 248 kts 313°
2026-05-09 18:19 32.46423 -97.20231 4014 ft 244 kts 313°
2026-05-09 18:19 32.48625 -97.23161 4011 ft 232 kts 313°
2026-05-09 18:19 32.49676 -97.24555 3977 ft 220 kts 313°
2026-05-09 18:20 32.50689 -97.25901 3722 ft 220 kts 313°
2026-05-09 18:20 32.51716 -97.27266 3449 ft 220 kts 312°
2026-05-09 18:20 32.52723 -97.28604 3214 ft 218 kts 313°
2026-05-09 18:20 32.53770 -97.29892 3025 ft 216 kts 321°
2026-05-09 18:21 32.54997 -97.30903 3015 ft 213 kts 335°
2026-05-09 18:21 32.56383 -97.31481 3025 ft 209 kts 345°
2026-05-09 18:21 32.57790 -97.31895 3026 ft 208 kts 349°
2026-05-09 18:21 32.59194 -97.32204 3024 ft 202 kts 351°
2026-05-09 18:22 32.60570 -97.32465 3020 ft 197 kts 352°
2026-05-09 18:22 32.61916 -97.32703 3013 ft 192 kts 352°
2026-05-09 18:22 32.63235 -97.32928 3019 ft 188 kts 353°
2026-05-09 18:22 32.64525 -97.33140 3017 ft 186 kts 353°
2026-05-09 18:23 32.65798 -97.33353 3014 ft 184 kts 353°
2026-05-09 18:23 32.67040 -97.33561 3026 ft 177 kts 352°
2026-05-09 18:23 32.68254 -97.33768 3018 ft 171 kts 352°
2026-05-09 18:23 32.69436 -97.33968 2841 ft 171 kts 353°
2026-05-09 18:24 32.70599 -97.34164 2639 ft 171 kts 352°
2026-05-09 18:24 32.71782 -97.34366 2433 ft 171 kts 352°
2026-05-09 18:24 32.72956 -97.34557 2230 ft 170 kts 352°
2026-05-09 18:25 32.75038 -97.34901 1831 ft 138 kts 352°
2026-05-09 18:25 32.75970 -97.35060 1642 ft 130 kts 352°
2026-05-09 18:25 32.76838 -97.35210 1472 ft 124 kts 352°
2026-05-09 18:25 32.77679 -97.35349 1316 ft 120 kts 352°
2026-05-09 18:26 32.78502 -97.35489 1168 ft 118 kts 352°
2026-05-09 18:26 32.79306 -97.35622 1020 ft 116 kts 352°
2026-05-09 18:26 32.80104 -97.35757 866 ft 114 kts 352°
2026-05-09 18:26 32.80885 -97.35889 708 ft 111 kts 351°
2026-05-09 18:27 32.81559 -97.36002 674 ft 71 kts 351°
2026-05-09 18:27 32.81793 -97.36042 679 ft 31 kts 351°
2026-05-09 18:27 32.82031 -97.36033 684 ft 23 kts 30°
2026-05-09 18:27 32.82145 -97.35974 687 ft 17 kts 355°
2026-05-09 18:28 32.82259 -97.35990 689 ft 15 kts 351°
2026-05-09 18:28 32.82361 -97.36006 691 ft 14 kts 358°
2026-05-09 18:28 32.82420 -97.35934 692 ft 13 kts 71°
2026-05-09 18:28 32.82446 -97.35840 693 ft 8 kts 84°
2026-05-09 18:29 32.82444 -97.35788 692 ft 0 kts 93°